Total_Precipitation_Accumulation
0.03 0.06 0.11 0.14 0.15 0.12 0.08 0.05 0.07 0.10 0.19 0.18 0.23 0.28 0.34 0.33 0.27 0.20 0.17 0.17 0.17 0.22 0.34 0.37 0.38 0.35 0.35 0.41 0.51 0.61 0.72 0.88 1.03 1.12 1.11 1.02 0.99 1.02 1.06 1.10 1.14 1.25 1.26 1.20
0.03 0.06 0.10 0.12 0.13 0.10 0.07 0.05 0.05 0.07 0.12 0.14 0.24 0.27 0.29 0.27 0.27 0.26 0.27 0.23 0.24 0.28 0.40 0.39 0.37 0.37 0.38 0.44 0.51 0.56 0.66 0.76 0.90 1.07 1.14 1.09 1.06 1.14 1.21 1.26 1.37 1.42 1.36 1.32
0.04 0.07 0.09 0.15 0.12 0.08 0.08 0.07 0.07 0.09 0.13 0.16 0.23 0.33 0.39 0.37 0.40 0.36 0.29 0.22 0.22 0.28 0.34 0.37 0.33 0.30 0.33 0.38 0.48 0.58 0.71 0.83 0.90 1.01 1.10 1.13 1.15 1.23 1.30 1.31 1.31 1.36 1.35 1.29
0.09 0.10 0.15 0.15 0.11 0.10 0.10 0.10 0.14 0.17 0.18 0.21 0.25 0.31 0.36 0.36 0.35 0.35 0.34 0.37 0.41 0.45 0.45 0.42 0.35 0.33 0.39 0.47 0.57 0.65 0.72 0.81 0.89 1.00 1.10 1.20 1.34 1.40 1.44 1.50 1.49 1.47 1.39 1.33
0.16 0.14 0.17 0.19 0.17 0.16 0.18 0.21 0.21 0.29 0.34 0.33 0.32 0.32 0.38 0.39 0.38 0.43 0.40 0.38 0.46 0.56 0.63 0.54 0.50 0.47 0.54 0.65 0.76 0.82 0.85 0.92 1.00 1.09 1.22 1.30 1.35 1.43 1.51 1.58 1.54 1.54 1.54 1.52
0.24 0.26 0.27 0.25 0.26 0.22 0.22 0.38 0.34 0.38 0.45 0.44 0.45 0.57 0.66 0.67 0.55 0.52 0.51 0.48 0.53 0.54 0.56 0.64 0.68 0.68 0.70 0.77 0.88 0.96 0.98 1.00 1.05 1.22 1.30 1.32 1.31 1.37 1.40 1.43 1.40 1.38 1.39 1.44
0.35 0.34 0.30 0.28 0.28 0.29 0.49 0.69 0.66 0.68 0.66 0.57 0.62 0.68 0.67 0.60 0.62 0.57 0.59 0.65 0.61 0.60 0.62 0.65 0.65 0.67 0.75 0.84 0.93 0.99 1.01 1.00 1.07 1.17 1.31 1.36 1.39 1.37 1.33 1.31 1.31 1.34 1.35 1.38
0.54 0.62 0.59 0.42 0.44 0.58 0.73 0.67 0.79 0.71 0.63 0.61 0.60 0.59 0.56 0.54 0.62 0.66 0.66 0.71 0.67 0.60 0.56 0.57 0.61 0.64 0.73 0.82 0.84 0.89 0.91 0.94 0.98 1.01 1.02 1.10 1.24 1.30 1.30 1.29 1.30 1.35 1.41 1.43
0.72 0.74 0.67 0.57 0.58 0.61 0.56 0.55 0.61 0.58 0.53 0.54 0.52 0.50 0.45 0.48 0.53 0.55 0.59 0.64 0.63 0.63 0.60 0.61 0.65 0.70 0.77 0.79 0.84 0.86 0.93 0.96 0.96 0.97 1.01 1.08 1.14 1.16 1.14 1.10 1.06 1.07 1.21 1.31
0.93 0.91 0.78 0.64 0.52 0.53 0.50 0.50 0.53 0.54 0.56 0.56 0.52 0.48 0.46 0.46 0.49 0.56 0.62 0.63 0.62 0.62 0.63 0.70 0.76 0.81 0.79 0.77 0.83 0.92 0.96 0.98 1.01 1.06 1.04 1.03 1.09 1.08 1.03 1.01 0.97 0.97 1.14 1.28
1.27 1.31 1.10 0.93 0.78 0.68 0.62 0.60 0.60 0.63 0.63 0.66 0.64 0.59 0.58 0.50 0.48 0.49 0.52 0.52 0.54 0.60 0.64 0.71 0.74 0.78 0.82 0.81 0.85 0.91 0.90 0.87 0.95 1.02 0.97 0.92 1.00 1.06 0.98 0.97 1.01 1.03 1.18 1.40
1.43 1.34 1.28 1.17 0.95 0.82 0.76 0.76 0.70 0.72 0.75 0.75 0.72 0.69 0.63 0.59 0.50 0.44 0.45 0.49 0.54 0.59 0.66 0.72 0.75 0.78 0.79 0.81 0.87 0.92 0.95 0.90 0.85 0.85 0.87 0.90 0.94 0.97 0.96 0.85 0.85 0.82 0.89 1.02
1.08 1.10 1.12 1.05 0.93 0.79 0.77 0.75 0.77 0.76 0.77 0.75 0.73 0.65 0.56 0.56 0.59 0.52 0.51 0.53 0.59 0.65 0.68 0.70 0.70 0.70 0.70 0.76 0.86 0.93 0.95 0.93 0.85 0.76 0.72 0.72 0.77 0.83 0.88 0.82 0.66 0.61 0.60 0.61
1.06 1.04 1.09 1.01 0.91 0.77 0.76 0.67 0.63 0.62 0.62 0.62 0.66 0.62 0.56 0.55 0.58 0.61 0.64 0.66 0.73 0.76 0.70 0.66 0.64 0.64 0.62 0.64 0.70 0.71 0.73 0.77 0.73 0.67 0.65 0.64 0.65 0.66 0.68 0.76 0.79 0.70 0.57 0.50
0.96 0.95 1.08 1.02 0.88 0.78 0.77 0.70 0.58 0.51 0.50 0.54 0.56 0.54 0.55 0.59 0.64 0.69 0.72 0.78 0.84 0.82 0.72 0.66 0.62 0.63 0.66 0.69 0.68 0.66 0.71 0.70 0.63 0.63 0.66 0.69 0.72 0.70 0.67 0.71 0.81 0.88 0.81 0.60
0.86 0.89 0.90 0.92 0.96 0.90 0.81 0.75 0.67 0.59 0.52 0.51 0.52 0.52 0.49 0.52 0.59 0.66 0.71 0.81 0.90 0.90 0.79 0.71 0.64 0.56 0.55 0.64 0.69 0.65 0.66 0.72 0.66 0.62 0.63 0.68 0.71 0.69 0.72 0.80 0.89 0.99 0.98 0.73
0.88 0.90 0.82 0.81 0.87 0.85 0.79 0.72 0.68 0.66 0.60 0.58 0.55 0.52 0.52 0.51 0.58 0.69 0.74 0.73 0.73 0.73 0.72 0.68 0.58 0.47 0.47 0.54 0.57 0.59 0.57 0.58 0.58 0.54 0.59 0.64 0.66 0.67 0.70 0.80 0.91 0.98 0.92 0.69
0.78 0.73 0.68 0.67 0.70 0.68 0.69 0.68 0.66 0.62 0.59 0.58 0.55 0.50 0.48 0.51 0.63 0.77 0.81 0.79 0.68 0.60 0.59 0.57 0.46 0.40 0.43 0.47 0.51 0.54 0.53 0.52 0.51 0.51 0.52 0.54 0.56 0.64 0.72 0.84 0.94 0.99 0.87 0.69
0.69 0.65 0.60 0.60 0.57 0.56 0.58 0.62 0.63 0.60 0.53 0.49 0.48 0.46 0.40 0.40 0.52 0.66 0.71 0.80 0.86 0.80 0.66 0.53 0.44 0.35 0.36 0.40 0.41 0.43 0.44 0.45 0.48 0.51 0.53 0.50 0.51 0.58 0.62 0.71 0.84 0.91 0.81 0.75
0.65 0.64 0.60 0.57 0.53 0.49 0.49 0.49 0.51 0.53 0.48 0.41 0.37 0.36 0.33 0.35 0.47 0.61 0.68 0.77 0.88 0.84 0.72 0.58 0.37 0.29 0.27 0.29 0.32 0.30 0.31 0.31 0.32 0.34 0.36 0.38 0.42 0.46 0.49 0.54 0.66 0.74 0.71 0.76
0.67 0.64 0.59 0.54 0.52 0.47 0.42 0.39 0.38 0.41 0.42 0.41 0.37 0.34 0.32 0.33 0.38 0.53 0.77 0.91 0.80 0.68 0.62 0.62 0.39 0.25 0.21 0.24 0.30 0.28 0.27 0.28 0.28 0.30 0.30 0.32 0.36 0.41 0.48 0.54 0.60 0.64 0.70 0.74
0.67 0.62 0.54 0.47 0.45 0.46 0.41 0.36 0.32 0.33 0.35 0.36 0.33 0.29 0.30 0.31 0.35 0.45 0.60 0.78 0.75 0.67 0.49 0.45 0.37 0.23 0.19 0.17 0.17 0.21 0.25 0.31 0.33 0.36 0.37 0.37 0.40 0.44 0.50 0.53 0.56 0.60 0.66 0.73
0.66 0.63 0.55 0.46 0.40 0.38 0.39 0.38 0.34 0.31 0.31 0.30 0.29 0.28 0.28 0.28 0.32 0.47 0.57 0.53 0.54 0.55 0.39 0.33 0.33 0.27 0.20 0.16 0.17 0.19 0.22 0.27 0.31 0.34 0.34 0.36 0.40 0.44 0.49 0.52 0.55 0.57 0.67 0.73
0.60 0.58 0.54 0.52 0.44 0.39 0.41 0.41 0.36 0.32 0.30 0.29 0.29 0.30 0.29 0.30 0.31 0.36 0.44 0.49 0.52 0.53 0.42 0.39 0.34 0.26 0.22 0.21 0.24 0.25 0.24 0.26 0.28 0.28 0.30 0.34 0.39 0.45 0.54 0.61 0.63 0.63 0.65 0.64
0.54 0.52 0.49 0.50 0.45 0.38 0.35 0.33 0.32 0.32 0.30 0.30 0.30 0.31 0.29 0.29 0.33 0.37 0.40 0.44 0.49 0.47 0.43 0.43 0.39 0.36 0.30 0.32 0.35 0.36 0.33 0.33 0.32 0.32 0.34 0.38 0.46 0.55 0.60 0.64 0.63 0.59 0.57 0.56
0.44 0.42 0.41 0.38 0.35 0.32 0.30 0.29 0.31 0.32 0.32 0.32 0.33 0.33 0.30 0.29 0.33 0.40 0.47 0.49 0.48 0.48 0.42 0.37 0.35 0.36 0.35 0.40 0.45 0.46 0.43 0.41 0.40 0.41 0.44 0.50 0.56 0.62 0.60 0.54 0.51 0.51 0.48 0.46
0.39 0.36 0.36 0.36 0.36 0.33 0.30 0.30 0.33 0.40 0.39 0.36 0.36 0.34 0.33 0.36 0.41 0.45 0.47 0.49 0.50 0.49 0.43 0.38 0.33 0.30 0.31 0.36 0.40 0.43 0.45 0.46 0.44 0.45 0.48 0.51 0.52 0.50 0.45 0.41 0.42 0.40 0.37 0.37